{"data":{"norad_id":56804,"intl_designator":"2023-078AP","name":"STARLINK-6069","alt_names":[],"object_type":"PAYLOAD","status":"ACTIVE","operator":null,"country":"US","launch_date":"2023-05-31","launch_site_code":"AFWTR","launch_vehicle":null,"mission":null,"orbit_class":"UNKNOWN","rcs_meters":null,"size_class":null,"mass_kg":null,"dimensions":null,"purposes":["comms"],"wikipedia_slug":null,"has_3d_model":false,"image_url":null,"decayed_at":null,"tle_current":{"epoch":"2026-05-25T02:51:21.644928Z","epoch_age_seconds":57991,"freshness":"FRESH","line1":"1 56804U 23078AP  26145.11900052 -.00000606  00000+0 -43008-4 0  9991","line2":"2 56804  69.9988 131.6812 0003381 267.7596  92.3176 14.98333422165293","mean_motion":14.98333422,"eccentricity":0.0003381,"inclination_deg":69.9988,"raan_deg":131.6812,"arg_perigee_deg":267.7596,"mean_anomaly_deg":92.3176,"bstar":-4.3008e-5,"rev_number":16529,"period_min":96.106779629721,"perigee_km":569.69545207326,"apogee_km":574.39516535041,"semimajor_km":6950.1823087118,"source":"CELESTRAK","updated_at":"2026-05-25T13:38:18.158898Z"}}}